Time,TemperatureF,DewpointF,PressureIn,WindDirection,WindDirectionDegrees,WindSpeedMPH,WindSpeedGustMPH,Humidity,HourlyPrecipIn,Conditions,Clouds,dailyrainin,SoftwareType,DateUTC
2013-11-30 00:01:00,24.3,19.0,30.75,NE,51,0.0,0.0,80,0.00,,---,0.00,VWS V14.01,2013-11-30 05:01:00,
2013-11-30 00:02:00,24.3,19.0,30.75,NNE,32,0.0,0.0,80,0.00,,---,0.00,VWS V14.01,2013-11-30 05:02:00,
2013-11-30 00:04:00,24.3,19.0,30.75,NNE,32,0.0,0.0,80,0.00,,---,0.00,VWS V14.01,2013-11-30 05:04:00,
2013-11-30 00:09:00,24.2,18.9,30.75,NNE,32,0.0,0.0,80,0.00,,---,0.00,VWS V14.01,2013-11-30 05:09:00,
2013-11-30 00:14:00,24.1,19.1,30.75,NNE,25,0.0,0.0,81,0.00,,---,0.00,VWS V14.01,2013-11-30 05:14:00,
2013-11-30 00:19:00,24.0,19.0,30.75,NW,307,0.0,1.0,81,0.00,,---,0.00,VWS V14.01,2013-11-30 05:19:00,
2013-11-30 00:24:00,23.9,19.2,30.75,NW,307,0.0,1.0,82,0.00,,---,0.00,VWS V14.01,2013-11-30 05:24:00,
2013-11-30 00:29:00,23.8,19.1,30.75,NW,312,0.0,1.0,82,0.00,,---,0.00,VWS V14.01,2013-11-30 05:29:00,
2013-11-30 00:34:00,23.6,18.6,30.75,NE,36,0.0,1.0,81,0.00,,---,0.00,VWS V14.01,2013-11-30 05:34:00,
2013-11-30 00:39:00,23.6,18.9,30.74,NE,36,0.0,1.0,82,0.00,,---,0.00,VWS V14.01,2013-11-30 05:39:00,
2013-11-30 00:44:00,23.5,18.8,30.75,NNE,24,0.0,1.0,82,0.00,,---,0.00,VWS V14.01,2013-11-30 05:44:00,
2013-11-30 00:49:00,23.5,18.8,30.74,NNE,24,0.0,1.0,82,0.00,,---,0.00,VWS V14.01,2013-11-30 05:49:00,
2013-11-30 00:54:00,23.4,18.7,30.75,NNW,328,0.0,1.0,82,0.00,,---,0.00,VWS V14.01,2013-11-30 05:54:00,
2013-11-30 00:59:00,23.4,18.7,30.75,NNW,330,0.0,1.0,82,0.00,,---,0.00,VWS V14.01,2013-11-30 05:59:00,
2013-11-30 01:04:00,23.2,18.5,30.75,NE,41,0.0,1.0,82,0.00,,---,0.00,VWS V14.01,2013-11-30 06:04:00,
2013-11-30 01:09:00,23.1,18.7,30.75,NE,41,0.0,1.0,83,0.00,,---,0.00,VWS V14.01,2013-11-30 06:09:00,
2013-11-30 01:14:00,23.0,18.6,30.75,NE,41,0.0,1.0,83,0.00,,---,0.00,VWS V14.01,2013-11-30 06:14:00,
2013-11-30 01:19:00,22.9,18.5,30.75,NE,41,0.0,1.0,83,0.00,,---,0.00,VWS V14.01,2013-11-30 06:19:00,
2013-11-30 01:24:00,22.9,18.5,30.75,NE,41,0.0,1.0,83,0.00,,---,0.00,VWS V14.01,2013-11-30 06:24:00,
2013-11-30 01:29:00,22.8,18.4,30.75,NE,41,0.0,1.0,83,0.00,,---,0.00,VWS V14.01,2013-11-30 06:29:00,
2013-11-30 01:34:00,22.7,18.6,30.75,NE,41,0.0,0.0,84,0.00,,---,0.00,VWS V14.01,2013-11-30 06:34:00,
2013-11-30 01:39:00,22.6,18.5,30.75,NE,41,0.0,0.0,84,0.00,,---,0.00,VWS V14.01,2013-11-30 06:39:00,
2013-11-30 01:44:00,22.6,18.5,30.75,NE,41,0.0,0.0,84,0.00,,---,0.00,VWS V14.01,2013-11-30 06:44:00,
2013-11-30 01:49:00,22.5,18.4,30.75,NE,41,0.0,1.0,84,0.00,,---,0.00,VWS V14.01,2013-11-30 06:49:00,
2013-11-30 01:54:00,22.5,18.4,30.75,NNE,32,0.0,2.0,84,0.00,,---,0.00,VWS V14.01,2013-11-30 06:54:00,
2013-11-30 01:59:00,22.4,18.6,30.75,NNE,32,0.0,2.0,85,0.00,,---,0.00,VWS V14.01,2013-11-30 06:59:00,
2013-11-30 02:04:00,22.4,18.3,30.75,NE,56,0.0,0.0,84,0.00,,---,0.00,VWS V14.01,2013-11-30 07:04:00,
2013-11-30 02:10:00,22.5,18.4,30.75,NE,56,0.0,0.0,84,0.00,,---,0.00,VWS V14.01,2013-11-30 07:10:00,
2013-11-30 02:15:00,22.4,18.3,30.75,NE,56,0.0,0.0,84,0.00,,---,0.00,VWS V14.01,2013-11-30 07:15:00,
2013-11-30 02:20:00,22.4,18.3,30.75,NE,56,0.0,0.0,84,0.00,,---,0.00,VWS V14.01,2013-11-30 07:20:00,
2013-11-30 02:25:00,22.4,18.3,30.75,NE,56,0.0,0.0,84,0.00,,---,0.00,VWS V14.01,2013-11-30 07:25:00,
2013-11-30 02:30:00,22.4,18.3,30.75,SW,233,0.0,0.0,84,0.00,,---,0.00,VWS V14.01,2013-11-30 07:30:00,
2013-11-30 02:35:00,22.4,18.3,30.75,NNE,18,0.0,1.0,84,0.00,,---,0.00,VWS V14.01,2013-11-30 07:35:00,
2013-11-30 02:40:00,22.4,18.3,30.75,NNE,18,0.0,1.0,84,0.00,,---,0.00,VWS V14.01,2013-11-30 07:40:00,
2013-11-30 02:45:00,22.4,18.0,30.75,NE,39,0.0,2.0,83,0.00,,---,0.00,VWS V14.01,2013-11-30 07:45:00,
2013-11-30 02:50:00,22.4,18.0,30.75,NNE,23,0.0,2.0,83,0.00,,---,0.00,VWS V14.01,2013-11-30 07:50:00,
2013-11-30 02:55:00,22.4,18.0,30.75,NNE,24,0.0,2.0,83,0.00,,---,0.00,VWS V14.01,2013-11-30 07:55:00,
2013-11-30 03:00:00,22.4,18.0,30.75,NNE,30,0.0,2.0,83,0.00,,---,0.00,VWS V14.01,2013-11-30 08:00:00,
2013-11-30 03:05:00,22.3,17.9,30.75,NNE,20,0.0,1.0,83,0.00,,---,0.00,VWS V14.01,2013-11-30 08:05:00,
2013-11-30 03:10:00,22.3,17.9,30.75,NNE,27,0.0,2.0,83,0.00,,---,0.00,VWS V14.01,2013-11-30 08:10:00,
2013-11-30 03:15:00,22.4,17.8,30.75,NE,50,1.0,2.0,82,0.00,,---,0.00,VWS V14.01,2013-11-30 08:15:00,
2013-11-30 03:20:00,22.4,17.8,30.75,NNE,20,0.0,2.0,82,0.00,,---,0.00,VWS V14.01,2013-11-30 08:20:00,
2013-11-30 03:25:00,22.4,17.8,30.75,NNW,340,0.0,2.0,82,0.00,,---,0.00,VWS V14.01,2013-11-30 08:25:00,
2013-11-30 03:30:00,22.3,17.6,30.75,NE,56,0.0,2.0,82,0.00,,---,0.00,VWS V14.01,2013-11-30 08:30:00,
2013-11-30 03:35:00,22.3,17.6,30.74,NNE,26,0.0,1.0,82,0.00,,---,0.00,VWS V14.01,2013-11-30 08:35:00,
2013-11-30 03:40:00,22.2,17.5,30.74,NE,34,0.0,1.0,82,0.00,,---,0.00,VWS V14.01,2013-11-30 08:40:00,
2013-11-30 03:45:00,22.2,17.5,30.75,NE,36,0.0,1.0,82,0.00,,---,0.00,VWS V14.01,2013-11-30 08:45:00,
2013-11-30 03:50:00,22.2,17.5,30.74,NE,41,0.0,1.0,82,0.00,,---,0.00,VWS V14.01,2013-11-30 08:50:00,
2013-11-30 03:55:00,22.1,17.2,30.74,North,7,0.0,2.0,81,0.00,,---,0.00,VWS V14.01,2013-11-30 08:55:00,
2013-11-30 04:00:00,22.1,17.2,30.74,NW,318,0.0,0.0,81,0.00,,---,0.00,VWS V14.01,2013-11-30 09:00:00,
2013-11-30 04:05:00,22.1,17.2,30.74,NE,34,0.0,1.0,81,0.00,,---,0.00,VWS V14.01,2013-11-30 09:05:00,
2013-11-30 04:10:00,22.1,17.2,30.74,NE,43,0.0,1.0,81,0.00,,---,0.00,VWS V14.01,2013-11-30 09:10:00,
2013-11-30 04:15:00,22.0,16.8,30.74,NE,41,0.0,1.0,80,0.00,,---,0.00,VWS V14.01,2013-11-30 09:15:00,
2013-11-30 04:20:00,22.0,16.8,30.74,NE,42,0.0,1.0,80,0.00,,---,0.00,VWS V14.01,2013-11-30 09:20:00,
2013-11-30 04:25:00,22.0,16.8,30.74,NE,54,0.0,2.0,80,0.00,,---,0.00,VWS V14.01,2013-11-30 09:25:00,
2013-11-30 04:31:00,22.0,16.5,30.74,NNE,17,0.0,2.0,79,0.00,,---,0.00,VWS V14.01,2013-11-30 09:31:00,
2013-11-30 04:36:00,22.0,16.5,30.74,NNW,335,0.0,2.0,79,0.00,,---,0.00,VWS V14.01,2013-11-30 09:36:00,
2013-11-30 04:41:00,21.9,16.4,30.74,NE,39,1.0,2.0,79,0.00,,---,0.00,VWS V14.01,2013-11-30 09:41:00,
2013-11-30 04:46:00,21.8,16.3,30.74,NE,45,0.0,2.0,79,0.00,,---,0.00,VWS V14.01,2013-11-30 09:46:00,
2013-11-30 04:51:00,21.9,16.4,30.74,NE,48,0.0,2.0,79,0.00,,---,0.00,VWS V14.01,2013-11-30 09:51:00,
2013-11-30 04:56:00,21.8,16.3,30.74,NE,47,0.0,2.0,79,0.00,,---,0.00,VWS V14.01,2013-11-30 09:56:00,
2013-11-30 05:01:00,21.7,16.2,30.74,NE,45,0.0,0.0,79,0.00,,---,0.00,VWS V14.01,2013-11-30 10:01:00,
2013-11-30 05:06:00,21.6,16.1,30.74,NE,54,1.0,1.0,79,0.00,,---,0.00,VWS V14.01,2013-11-30 10:06:00,
2013-11-30 05:11:00,21.5,16.0,30.74,NE,53,0.0,1.0,79,0.00,,---,0.00,VWS V14.01,2013-11-30 10:11:00,
2013-11-30 05:16:00,21.3,16.1,30.74,NNE,22,0.0,1.0,80,0.00,,---,0.00,VWS V14.01,2013-11-30 10:16:00,
2013-11-30 05:21:00,21.2,16.0,30.74,NNE,23,0.0,1.0,80,0.00,,---,0.00,VWS V14.01,2013-11-30 10:21:00,
2013-11-30 05:26:00,21.1,15.9,30.74,NNE,27,0.0,1.0,80,0.00,,---,0.00,VWS V14.01,2013-11-30 10:26:00,
2013-11-30 05:31:00,21.1,15.9,30.74,NNE,27,0.0,0.0,80,0.00,,---,0.00,VWS V14.01,2013-11-30 10:31:00,
2013-11-30 05:36:00,21.1,15.9,30.74,NNE,28,0.0,1.0,80,0.00,,---,0.00,VWS V14.01,2013-11-30 10:36:00,
2013-11-30 05:41:00,21.0,15.8,30.74,NNE,28,0.0,1.0,80,0.00,,---,0.00,VWS V14.01,2013-11-30 10:41:00,
2013-11-30 05:46:00,20.9,15.7,30.74,NE,44,0.0,1.0,80,0.00,,---,0.00,VWS V14.01,2013-11-30 10:46:00,
2013-11-30 05:51:00,21.0,15.8,30.74,NE,44,0.0,1.0,80,0.00,,---,0.00,VWS V14.01,2013-11-30 10:51:00,
2013-11-30 05:56:00,20.9,15.7,30.74,NE,44,0.0,1.0,80,0.00,,---,0.00,VWS V14.01,2013-11-30 10:56:00,
2013-11-30 06:01:00,20.8,15.6,30.74,NNE,32,0.0,0.0,80,0.00,,---,0.00,VWS V14.01,2013-11-30 11:01:00,
2013-11-30 06:06:00,20.7,15.5,30.74,NNE,32,0.0,0.0,80,0.00,,---,0.00,VWS V14.01,2013-11-30 11:06:00,
2013-11-30 06:11:00,20.6,15.7,30.74,North,351,0.0,0.0,81,0.00,,---,0.00,VWS V14.01,2013-11-30 11:11:00,
2013-11-30 06:16:00,20.6,15.4,30.74,NE,44,0.0,0.0,80,0.00,,---,0.00,VWS V14.01,2013-11-30 11:16:00,
2013-11-30 06:21:00,20.5,15.3,30.74,NE,44,0.0,0.0,80,0.00,,---,0.00,VWS V14.01,2013-11-30 11:21:00,
2013-11-30 06:26:00,20.5,15.6,30.74,NE,44,0.0,0.0,81,0.00,,---,0.00,VWS V14.01,2013-11-30 11:26:00,
2013-11-30 06:31:00,20.4,15.5,30.74,NE,44,0.0,0.0,81,0.00,,---,0.00,VWS V14.01,2013-11-30 11:31:00,
2013-11-30 06:36:00,20.5,15.3,30.74,NE,43,0.0,0.0,80,0.00,,---,0.00,VWS V14.01,2013-11-30 11:36:00,
2013-11-30 06:41:00,20.5,15.3,30.74,NE,45,0.0,0.0,80,0.00,,---,0.00,VWS V14.01,2013-11-30 11:41:00,
2013-11-30 06:46:00,20.4,15.2,30.75,NE,44,0.0,0.0,80,0.00,,---,0.00,VWS V14.01,2013-11-30 11:46:00,
2013-11-30 06:51:00,20.4,15.2,30.75,NE,44,0.0,0.0,80,0.00,,---,0.00,VWS V14.01,2013-11-30 11:51:00,
2013-11-30 06:56:00,20.4,15.2,30.75,NE,44,0.0,0.0,80,0.00,,---,0.00,VWS V14.01,2013-11-30 11:56:00,
2013-11-30 07:01:00,20.4,15.2,30.75,NE,46,0.0,1.0,80,0.00,,---,0.00,VWS V14.01,2013-11-30 12:01:00,
2013-11-30 07:07:00,20.5,15.3,30.74,NE,45,0.0,1.0,80,0.00,,---,0.00,VWS V14.01,2013-11-30 12:07:00,
2013-11-30 07:12:00,20.6,15.4,30.74,NE,48,1.0,1.0,80,0.00,,---,0.00,VWS V14.01,2013-11-30 12:12:00,
2013-11-30 07:17:00,20.7,15.2,30.74,NE,45,0.0,1.0,79,0.00,,---,0.00,VWS V14.01,2013-11-30 12:17:00,
2013-11-30 07:22:00,20.8,15.3,30.75,NE,37,0.0,1.0,79,0.00,,---,0.00,VWS V14.01,2013-11-30 12:22:00,
2013-11-30 07:27:00,20.9,15.7,30.75,NE,37,0.0,1.0,80,0.00,,---,0.00,VWS V14.01,2013-11-30 12:27:00,
2013-11-30 07:32:00,21.0,15.8,30.75,NNE,25,0.0,0.0,80,0.00,,---,0.00,VWS V14.01,2013-11-30 12:32:00,
2013-11-30 07:37:00,21.1,15.9,30.75,ENE,60,1.0,1.0,80,0.00,,---,0.00,VWS V14.01,2013-11-30 12:37:00,
2013-11-30 07:42:00,21.4,15.9,30.75,NE,55,0.0,1.0,79,0.00,,---,0.00,VWS V14.01,2013-11-30 12:42:00,
2013-11-30 07:47:00,21.8,16.3,30.75,ENE,57,0.0,2.0,79,0.00,,---,0.00,VWS V14.01,2013-11-30 12:47:00,
2013-11-30 07:52:00,22.0,16.5,30.75,NE,46,0.0,2.0,79,0.00,,---,0.00,VWS V14.01,2013-11-30 12:52:00,
2013-11-30 07:57:00,22.4,16.9,30.75,NE,49,0.0,2.0,79,0.00,,---,0.00,VWS V14.01,2013-11-30 12:57:00,
2013-11-30 08:02:00,22.7,16.9,30.75,NE,46,0.0,2.0,78,0.00,,---,0.00,VWS V14.01,2013-11-30 13:02:00,
2013-11-30 08:07:00,23.0,17.2,30.75,ENE,63,0.0,2.0,78,0.00,,---,0.00,VWS V14.01,2013-11-30 13:07:00,
2013-11-30 08:12:00,23.4,17.6,30.75,NE,51,1.0,2.0,78,0.00,,---,0.00,VWS V14.01,2013-11-30 13:12:00,
2013-11-30 08:17:00,23.9,18.0,30.75,ENE,77,2.0,3.0,78,0.00,,---,0.00,VWS V14.01,2013-11-30 13:17:00,
2013-11-30 08:22:00,24.4,18.2,30.75,NE,44,1.0,3.0,77,0.00,,---,0.00,VWS V14.01,2013-11-30 13:22:00,
2013-11-30 08:27:00,24.8,18.6,30.75,ENE,64,1.0,3.0,77,0.00,,---,0.00,VWS V14.01,2013-11-30 13:27:00,
2013-11-30 08:32:00,25.2,18.7,30.75,ENE,69,1.0,3.0,76,0.00,,---,0.00,VWS V14.01,2013-11-30 13:32:00,
2013-11-30 08:37:00,25.6,19.1,30.75,NE,42,1.0,4.0,76,0.00,,---,0.00,VWS V14.01,2013-11-30 13:37:00,
2013-11-30 08:42:00,26.1,19.6,30.75,NE,53,0.0,4.0,76,0.00,,---,0.00,VWS V14.01,2013-11-30 13:42:00,
2013-11-30 08:47:00,26.6,20.1,30.74,East,101,2.0,4.0,76,0.00,,---,0.00,VWS V14.01,2013-11-30 13:47:00,
2013-11-30 08:52:00,27.0,20.1,30.74,ENE,77,1.0,4.0,75,0.00,,---,0.00,VWS V14.01,2013-11-30 13:52:00,
2013-11-30 08:57:00,27.4,20.5,30.74,ENE,60,1.0,4.0,75,0.00,,---,0.00,VWS V14.01,2013-11-30 13:57:00,
2013-11-30 09:02:00,27.9,21.3,30.74,ENE,70,2.0,2.0,76,0.00,,---,0.00,VWS V14.01,2013-11-30 14:02:00,
2013-11-30 09:07:00,28.3,21.4,30.74,ENE,68,1.0,2.0,75,0.00,,---,0.00,VWS V14.01,2013-11-30 14:07:00,
2013-11-30 09:12:00,28.8,22.2,30.74,ENE,60,1.0,3.0,76,0.00,,---,0.00,VWS V14.01,2013-11-30 14:12:00,
2013-11-30 09:17:00,29.5,22.6,30.74,ENE,58,2.0,3.0,75,0.00,,---,0.00,VWS V14.01,2013-11-30 14:17:00,
2013-11-30 09:22:00,30.2,23.2,30.74,NE,47,4.0,4.0,75,0.00,,---,0.00,VWS V14.01,2013-11-30 14:22:00,
2013-11-30 09:27:00,30.7,23.4,30.74,NE,56,2.0,4.0,74,0.00,,---,0.00,VWS V14.01,2013-11-30 14:27:00,
2013-11-30 09:32:00,31.3,24.0,30.74,East,87,3.0,3.0,74,0.00,,---,0.00,VWS V14.01,2013-11-30 14:32:00,
2013-11-30 09:37:00,31.9,24.6,30.74,NE,44,0.0,4.0,74,0.00,,---,0.00,VWS V14.01,2013-11-30 14:37:00,
2013-11-30 09:42:00,32.4,24.7,30.74,ENE,70,2.0,4.0,73,0.00,,---,0.00,VWS V14.01,2013-11-30 14:42:00,
2013-11-30 09:47:00,32.8,25.1,30.74,NE,44,1.0,4.0,73,0.00,,---,0.00,VWS V14.01,2013-11-30 14:47:00,
2013-11-30 09:52:00,33.3,25.6,30.74,ENE,60,2.0,4.0,73,0.00,,---,0.00,VWS V14.01,2013-11-30 14:52:00,
2013-11-30 09:58:00,33.8,26.1,30.74,ENE,59,0.0,4.0,73,0.00,,---,0.00,VWS V14.01,2013-11-30 14:58:00,
2013-11-30 10:03:00,34.4,26.3,30.74,ENE,63,3.0,3.0,72,0.00,,---,0.00,VWS V14.01,2013-11-30 15:03:00,
2013-11-30 10:08:00,34.8,27.0,30.73,ESE,112,3.0,3.0,73,0.00,,---,0.00,VWS V14.01,2013-11-30 15:08:00,
2013-11-30 10:13:00,35.3,27.2,30.73,ENE,72,2.0,4.0,72,0.00,,---,0.00,VWS V14.01,2013-11-30 15:13:00,
2013-11-30 10:18:00,35.7,27.6,30.73,ENE,65,2.0,4.0,72,0.00,,---,0.00,VWS V14.01,2013-11-30 15:18:00,
2013-11-30 10:23:00,36.0,27.9,30.73,ENE,70,2.0,4.0,72,0.00,,---,0.00,VWS V14.01,2013-11-30 15:23:00,
2013-11-30 10:28:00,36.7,28.2,30.72,NE,42,1.0,4.0,71,0.00,,---,0.00,VWS V14.01,2013-11-30 15:28:00,
2013-11-30 10:33:00,37.2,28.3,30.72,ENE,65,2.0,3.0,70,0.00,,---,0.00,VWS V14.01,2013-11-30 15:33:00,
2013-11-30 10:38:00,37.5,28.3,30.72,ENE,68,4.0,4.0,69,0.00,,---,0.00,VWS V14.01,2013-11-30 15:38:00,
2013-11-30 10:43:00,37.8,28.9,30.71,ENE,75,2.0,6.0,70,0.00,,---,0.00,VWS V14.01,2013-11-30 15:43:00,
2013-11-30 10:48:00,38.5,29.2,30.71,ESE,113,3.0,6.0,69,0.00,,---,0.00,VWS V14.01,2013-11-30 15:48:00,
2013-11-30 10:53:00,38.5,28.9,30.70,East,86,2.0,6.0,68,0.00,,---,0.00,VWS V14.01,2013-11-30 15:53:00,
2013-11-30 10:58:00,39.0,29.4,30.70,NE,46,2.0,6.0,68,0.00,,---,0.00,VWS V14.01,2013-11-30 15:58:00,
2013-11-30 11:03:00,39.3,29.6,30.70,East,86,1.0,5.0,68,0.00,,---,0.00,VWS V14.01,2013-11-30 16:03:00,
2013-11-30 11:08:00,39.5,29.8,30.69,ESE,108,4.0,9.0,68,0.00,,---,0.00,VWS V14.01,2013-11-30 16:08:00,
2013-11-30 11:13:00,39.8,29.8,30.69,SE,128,2.0,9.0,67,0.00,,---,0.00,VWS V14.01,2013-11-30 16:13:00,
2013-11-30 11:18:00,39.7,30.0,30.69,ESE,113,0.0,9.0,68,0.00,,---,0.00,VWS V14.01,2013-11-30 16:18:00,
2013-11-30 11:23:00,40.0,29.9,30.68,NE,39,2.0,9.0,67,0.00,,---,0.00,VWS V14.01,2013-11-30 16:23:00,
2013-11-30 11:28:00,40.0,29.9,30.68,SE,141,4.0,9.0,67,0.00,,---,0.00,VWS V14.01,2013-11-30 16:28:00,
2013-11-30 11:33:00,40.4,30.3,30.68,ESE,108,1.0,4.0,67,0.00,,---,0.00,VWS V14.01,2013-11-30 16:33:00,
2013-11-30 11:38:00,40.6,30.5,30.68,ENE,77,9.0,11.0,67,0.00,,---,0.00,VWS V14.01,2013-11-30 16:38:00,
2013-11-30 11:43:00,40.0,29.9,30.67,East,85,2.0,11.0,67,0.00,,---,0.00,VWS V14.01,2013-11-30 16:43:00,
2013-11-30 11:48:00,40.4,30.7,30.67,ENE,68,6.0,11.0,68,0.00,,---,0.00,VWS V14.01,2013-11-30 16:48:00,
2013-11-30 11:53:00,40.2,30.1,30.67,East,83,4.0,11.0,67,0.00,,---,0.00,VWS V14.01,2013-11-30 16:53:00,
2013-11-30 11:58:00,40.4,30.3,30.67,ENE,75,4.0,11.0,67,0.00,,---,0.00,VWS V14.01,2013-11-30 16:58:00,
2013-11-30 12:03:00,40.7,30.2,30.67,East,100,4.0,5.0,66,0.00,,---,0.00,VWS V14.01,2013-11-30 17:03:00,
2013-11-30 12:08:00,40.7,30.2,30.66,ENE,64,3.0,6.0,66,0.00,,---,0.00,VWS V14.01,2013-11-30 17:08:00,
2013-11-30 12:13:00,40.7,29.9,30.66,NE,46,6.0,8.0,65,0.00,,---,0.00,VWS V14.01,2013-11-30 17:13:00,
2013-11-30 12:18:00,41.1,30.6,30.66,East,89,3.0,8.0,66,0.00,,---,0.00,VWS V14.01,2013-11-30 17:18:00,
2013-11-30 12:23:00,40.8,30.0,30.65,ESE,110,2.0,8.0,65,0.00,,---,0.00,VWS V14.01,2013-11-30 17:23:00,
2013-11-30 12:28:00,40.9,30.1,30.65,East,96,3.0,8.0,65,0.00,,---,0.00,VWS V14.01,2013-11-30 17:28:00,
2013-11-30 12:33:00,41.0,30.1,30.64,ENE,67,4.0,6.0,65,0.00,,---,0.00,VWS V14.01,2013-11-30 17:33:00,
2013-11-30 12:39:00,41.2,30.7,30.65,ESE,113,1.0,6.0,66,0.00,,---,0.00,VWS V14.01,2013-11-30 17:39:00,
2013-11-30 12:44:00,41.2,30.0,30.64,East,95,2.0,7.0,64,0.00,,---,0.00,VWS V14.01,2013-11-30 17:44:00,
2013-11-30 12:49:00,40.6,29.8,30.64,East,90,4.0,8.0,65,0.00,,---,0.00,VWS V14.01,2013-11-30 17:49:00,
2013-11-30 12:54:00,40.8,30.3,30.63,SE,141,0.0,8.0,66,0.00,,---,0.00,VWS V14.01,2013-11-30 17:54:00,
2013-11-30 12:59:00,40.9,30.1,30.64,East,94,4.0,8.0,65,0.00,,---,0.00,VWS V14.01,2013-11-30 17:59:00,
2013-11-30 13:04:00,40.4,30.0,30.63,East,91,4.0,5.0,66,0.00,,---,0.00,VWS V14.01,2013-11-30 18:04:00,
2013-11-30 13:09:00,40.2,29.8,30.63,ESE,104,3.0,6.0,66,0.00,,---,0.00,VWS V14.01,2013-11-30 18:09:00,
2013-11-30 13:14:00,40.3,29.9,30.63,SW,231,2.0,6.0,66,0.00,,---,0.00,VWS V14.01,2013-11-30 18:14:00,
2013-11-30 13:19:00,40.2,29.8,30.62,East,90,3.0,6.0,66,0.00,,---,0.00,VWS V14.01,2013-11-30 18:19:00,
2013-11-30 13:24:00,40.1,30.0,30.62,East,89,2.0,6.0,67,0.00,,---,0.00,VWS V14.01,2013-11-30 18:24:00,
2013-11-30 13:29:00,40.0,29.6,30.62,East,83,4.0,6.0,66,0.00,,---,0.00,VWS V14.01,2013-11-30 18:29:00,
2013-11-30 13:34:00,39.7,29.7,30.62,South,179,1.0,4.0,67,0.00,,---,0.00,VWS V14.01,2013-11-30 18:34:00,
2013-11-30 13:39:00,39.7,29.7,30.62,ENE,75,3.0,6.0,67,0.00,,---,0.00,VWS V14.01,2013-11-30 18:39:00,
2013-11-30 13:44:00,39.6,29.2,30.62,East,93,3.0,6.0,66,0.00,,---,0.00,VWS V14.01,2013-11-30 18:44:00,
2013-11-30 13:49:00,39.5,29.5,30.62,ESE,117,0.0,7.0,67,0.00,,---,0.00,VWS V14.01,2013-11-30 18:49:00,
2013-11-30 13:54:00,39.6,29.6,30.62,ENE,68,2.0,7.0,67,0.00,,---,0.00,VWS V14.01,2013-11-30 18:54:00,
2013-11-30 13:59:00,39.6,29.6,30.61,ESE,120,0.0,7.0,67,0.00,,---,0.00,VWS V14.01,2013-11-30 18:59:00,
2013-11-30 14:04:00,39.5,29.1,30.61,East,81,2.0,6.0,66,0.00,,---,0.00,VWS V14.01,2013-11-30 19:04:00,
2013-11-30 14:09:00,39.3,29.3,30.61,East,92,3.0,6.0,67,0.00,,---,0.00,VWS V14.01,2013-11-30 19:09:00,
2013-11-30 14:14:00,39.2,29.2,30.60,East,98,1.0,6.0,67,0.00,,---,0.00,VWS V14.01,2013-11-30 19:14:00,
2013-11-30 14:19:00,39.2,29.2,30.60,East,79,2.0,6.0,67,0.00,,---,0.00,VWS V14.01,2013-11-30 19:19:00,
2013-11-30 14:25:00,39.4,29.4,30.60,East,94,4.0,6.0,67,0.00,,---,0.00,VWS V14.01,2013-11-30 19:25:00,
2013-11-30 14:30:00,39.5,29.5,30.59,ESE,123,2.0,6.0,67,0.00,,---,0.00,VWS V14.01,2013-11-30 19:30:00,
2013-11-30 14:35:00,39.4,29.0,30.59,East,101,1.0,4.0,66,0.00,,---,0.00,VWS V14.01,2013-11-30 19:35:00,
2013-11-30 14:40:00,39.6,29.6,30.60,SE,124,3.0,4.0,67,0.00,,---,0.00,VWS V14.01,2013-11-30 19:40:00,
2013-11-30 14:45:00,39.6,29.2,30.60,East,94,0.0,4.0,66,0.00,,---,0.00,VWS V14.01,2013-11-30 19:45:00,
2013-11-30 14:50:00,39.6,29.2,30.60,ESE,113,1.0,4.0,66,0.00,,---,0.00,VWS V14.01,2013-11-30 19:50:00,
2013-11-30 14:55:00,39.3,28.9,30.59,East,96,0.0,5.0,66,0.00,,---,0.00,VWS V14.01,2013-11-30 19:55:00,
2013-11-30 15:00:00,39.3,28.9,30.59,ESE,110,0.0,5.0,66,0.00,,---,0.00,VWS V14.01,2013-11-30 20:00:00,
2013-11-30 15:05:00,39.3,29.3,30.59,East,79,2.0,4.0,67,0.00,,---,0.00,VWS V14.01,2013-11-30 20:05:00,
2013-11-30 15:10:00,39.2,28.8,30.59,ENE,75,1.0,4.0,66,0.00,,---,0.00,VWS V14.01,2013-11-30 20:10:00,
2013-11-30 15:15:00,39.1,28.7,30.59,ENE,70,2.0,4.0,66,0.00,,---,0.00,VWS V14.01,2013-11-30 20:15:00,
2013-11-30 15:20:00,39.1,29.1,30.59,ESE,104,0.0,4.0,67,0.00,,---,0.00,VWS V14.01,2013-11-30 20:20:00,
2013-11-30 15:25:00,39.2,28.8,30.59,East,98,0.0,4.0,66,0.00,,---,0.00,VWS V14.01,2013-11-30 20:25:00,
2013-11-30 15:30:00,39.1,28.7,30.59,SE,132,0.0,4.0,66,0.00,,---,0.00,VWS V14.01,2013-11-30 20:30:00,
2013-11-30 15:35:00,39.1,28.7,30.59,ESE,119,1.0,2.0,66,0.00,,---,0.00,VWS V14.01,2013-11-30 20:35:00,
2013-11-30 15:40:00,39.1,28.7,30.58,ESE,105,0.0,2.0,66,0.00,,---,0.00,VWS V14.01,2013-11-30 20:40:00,
2013-11-30 15:45:00,39.0,28.6,30.58,ENE,60,1.0,2.0,66,0.00,,---,0.00,VWS V14.01,2013-11-30 20:45:00,
2013-11-30 15:50:00,38.9,28.5,30.58,ENE,70,1.0,2.0,66,0.00,,---,0.00,VWS V14.01,2013-11-30 20:50:00,
2013-11-30 15:55:00,38.8,28.4,30.58,East,85,1.0,2.0,66,0.00,,---,0.00,VWS V14.01,2013-11-30 20:55:00,
2013-11-30 16:00:00,38.6,28.6,30.58,East,86,0.0,2.0,67,0.00,,---,0.00,VWS V14.01,2013-11-30 21:00:00,
2013-11-30 16:05:00,38.5,28.5,30.58,ENE,73,0.0,0.0,67,0.00,,---,0.00,VWS V14.01,2013-11-30 21:05:00,
2013-11-30 16:10:00,38.5,28.5,30.58,East,81,1.0,2.0,67,0.00,,---,0.00,VWS V14.01,2013-11-30 21:10:00,
2013-11-30 16:15:00,38.3,28.3,30.57,East,88,0.0,2.0,67,0.00,,---,0.00,VWS V14.01,2013-11-30 21:15:00,
2013-11-30 16:21:00,38.2,28.2,30.57,East,87,0.0,2.0,67,0.00,,---,0.00,VWS V14.01,2013-11-30 21:21:00,
2013-11-30 16:26:00,38.0,28.4,30.57,East,87,0.0,2.0,68,0.00,,---,0.00,VWS V14.01,2013-11-30 21:26:00,
2013-11-30 16:31:00,37.8,28.2,30.57,East,87,0.0,0.0,68,0.00,,---,0.00,VWS V14.01,2013-11-30 21:31:00,
2013-11-30 16:36:00,37.6,28.0,30.57,East,87,0.0,0.0,68,0.00,,---,0.00,VWS V14.01,2013-11-30 21:36:00,
2013-11-30 16:41:00,37.3,28.1,30.57,East,87,0.0,0.0,69,0.00,,---,0.00,VWS V14.01,2013-11-30 21:41:00,
2013-11-30 16:46:00,37.1,27.9,30.57,East,87,0.0,0.0,69,0.00,,---,0.00,VWS V14.01,2013-11-30 21:46:00,
2013-11-30 16:51:00,36.9,27.7,30.56,East,87,0.0,0.0,69,0.00,,---,0.00,VWS V14.01,2013-11-30 21:51:00,
2013-11-30 16:56:00,36.8,28.0,30.56,East,87,0.0,0.0,70,0.00,,---,0.00,VWS V14.01,2013-11-30 21:56:00,
2013-11-30 17:01:00,36.5,28.0,30.56,East,87,0.0,0.0,71,0.00,,---,0.00,VWS V14.01,2013-11-30 22:01:00,
2013-11-30 17:06:00,36.3,27.8,30.56,East,87,0.0,0.0,71,0.00,,---,0.00,VWS V14.01,2013-11-30 22:06:00,
2013-11-30 17:11:00,36.3,28.1,30.56,East,87,0.0,0.0,72,0.00,,---,0.00,VWS V14.01,2013-11-30 22:11:00,
2013-11-30 17:16:00,36.2,27.7,30.55,East,87,0.0,0.0,71,0.00,,---,0.00,VWS V14.01,2013-11-30 22:16:00,
2013-11-30 17:21:00,36.1,28.0,30.55,East,88,0.0,0.0,72,0.00,,---,0.00,VWS V14.01,2013-11-30 22:21:00,
2013-11-30 17:26:00,35.9,27.8,30.55,East,87,0.0,0.0,72,0.00,,---,0.00,VWS V14.01,2013-11-30 22:26:00,
2013-11-30 17:31:00,35.9,27.8,30.55,East,87,0.0,0.0,72,0.00,,---,0.00,VWS V14.01,2013-11-30 22:31:00,
2013-11-30 17:36:00,35.7,27.6,30.54,East,87,0.0,0.0,72,0.00,,---,0.00,VWS V14.01,2013-11-30 22:36:00,
2013-11-30 17:41:00,35.6,27.8,30.54,East,88,0.0,0.0,73,0.00,,---,0.00,VWS V14.01,2013-11-30 22:41:00,
2013-11-30 17:46:00,35.4,28.3,30.54,East,87,0.0,0.0,75,0.00,,---,0.00,VWS V14.01,2013-11-30 22:46:00,
2013-11-30 17:51:00,35.2,28.1,30.54,East,87,0.0,0.0,75,0.00,,---,0.00,VWS V14.01,2013-11-30 22:51:00,
2013-11-30 17:56:00,35.0,28.2,30.53,East,87,0.0,0.0,76,0.00,,---,0.00,VWS V14.01,2013-11-30 22:56:00,
2013-11-30 18:01:00,34.8,28.0,30.53,East,87,0.0,0.0,76,0.00,,---,0.00,VWS V14.01,2013-11-30 23:01:00,
2013-11-30 18:06:00,34.8,28.0,30.53,East,87,0.0,0.0,76,0.00,,---,0.00,VWS V14.01,2013-11-30 23:06:00,
2013-11-30 18:11:00,34.7,27.6,30.53,East,87,0.0,0.0,75,0.00,,---,0.00,VWS V14.01,2013-11-30 23:11:00,
2013-11-30 18:16:00,34.8,27.7,30.53,East,87,0.0,0.0,75,0.00,,---,0.00,VWS V14.01,2013-11-30 23:16:00,
2013-11-30 18:21:00,35.0,27.6,30.53,East,86,0.0,0.0,74,0.00,,---,0.00,VWS V14.01,2013-11-30 23:21:00,
2013-11-30 18:26:00,35.1,27.3,30.52,East,85,0.0,0.0,73,0.00,,---,0.00,VWS V14.01,2013-11-30 23:26:00,
2013-11-30 18:31:00,35.2,27.4,30.52,East,85,0.0,0.0,73,0.00,,---,0.00,VWS V14.01,2013-11-30 23:31:00,
2013-11-30 18:36:00,35.2,27.4,30.52,East,85,0.0,0.0,73,0.00,,---,0.00,VWS V14.01,2013-11-30 23:36:00,
2013-11-30 18:42:00,35.1,27.3,30.52,ENE,63,0.0,0.0,73,0.00,,---,0.00,VWS V14.01,2013-11-30 23:42:00,
2013-11-30 18:47:00,35.1,27.7,30.51,ENE,63,0.0,0.0,74,0.00,,---,0.00,VWS V14.01,2013-11-30 23:47:00,
2013-11-30 18:52:00,35.0,27.2,30.51,ENE,63,0.0,1.0,73,0.00,,---,0.00,VWS V14.01,2013-11-30 23:52:00,
2013-11-30 18:57:00,35.1,27.3,30.51,ENE,60,0.0,2.0,73,0.00,,---,0.00,VWS V14.01,2013-11-30 23:57:00,
2013-11-30 19:02:00,35.1,27.3,30.51,ENE,60,0.0,0.0,73,0.00,,---,0.00,VWS V14.01,2013-12-01 00:02:00,
2013-11-30 19:07:00,35.1,27.3,30.51,ENE,60,0.0,1.0,73,0.00,,---,0.00,VWS V14.01,2013-12-01 00:07:00,
2013-11-30 19:12:00,35.0,27.2,30.50,ENE,60,0.0,1.0,73,0.00,,---,0.00,VWS V14.01,2013-12-01 00:12:00,
2013-11-30 19:17:00,35.0,27.2,30.50,ENE,60,0.0,1.0,73,0.00,,---,0.00,VWS V14.01,2013-12-01 00:17:00,
2013-11-30 19:22:00,35.1,27.3,30.50,ENE,60,0.0,1.0,73,0.00,,---,0.00,VWS V14.01,2013-12-01 00:22:00,
2013-11-30 19:27:00,35.0,27.2,30.49,ENE,57,0.0,1.0,73,0.00,,---,0.00,VWS V14.01,2013-12-01 00:27:00,
2013-11-30 19:32:00,34.9,27.1,30.49,ENE,57,0.0,1.0,73,0.00,,---,0.00,VWS V14.01,2013-12-01 00:32:00,
2013-11-30 19:37:00,34.8,27.0,30.49,ENE,57,1.0,1.0,73,0.00,,---,0.00,VWS V14.01,2013-12-01 00:37:00,
2013-11-30 19:42:00,34.8,27.0,30.49,ENE,57,0.0,1.0,73,0.00,,---,0.00,VWS V14.01,2013-12-01 00:42:00,
2013-11-30 19:47:00,34.7,27.3,30.49,ENE,57,0.0,1.0,74,0.00,,---,0.00,VWS V14.01,2013-12-01 00:47:00,
2013-11-30 19:52:00,34.5,27.4,30.49,ENE,57,0.0,1.0,75,0.00,,---,0.00,VWS V14.01,2013-12-01 00:52:00,
2013-11-30 19:57:00,34.3,27.2,30.49,ENE,57,0.0,1.0,75,0.00,,---,0.00,VWS V14.01,2013-12-01 00:57:00,
2013-11-30 20:02:00,34.2,26.8,30.49,ENE,57,0.0,0.0,74,0.00,,---,0.00,VWS V14.01,2013-12-01 01:02:00,
2013-11-30 20:07:00,34.1,27.0,30.48,ENE,57,0.0,0.0,75,0.00,,---,0.00,VWS V14.01,2013-12-01 01:07:00,
2013-11-30 20:12:00,34.1,27.0,30.48,ENE,57,0.0,0.0,75,0.00,,---,0.00,VWS V14.01,2013-12-01 01:12:00,
2013-11-30 20:17:00,34.1,27.0,30.48,ENE,57,0.0,0.0,75,0.00,,---,0.00,VWS V14.01,2013-12-01 01:17:00,
2013-11-30 20:22:00,34.0,26.9,30.48,ENE,57,0.0,0.0,75,0.00,,---,0.00,VWS V14.01,2013-12-01 01:22:00,
2013-11-30 20:27:00,34.1,27.0,30.48,ENE,57,0.0,0.0,75,0.00,,---,0.00,VWS V14.01,2013-12-01 01:27:00,
2013-11-30 20:32:00,34.2,27.1,30.48,ENE,57,0.0,0.0,75,0.00,,---,0.00,VWS V14.01,2013-12-01 01:32:00,
2013-11-30 20:37:00,34.2,27.1,30.47,ENE,57,0.0,0.0,75,0.00,,---,0.00,VWS V14.01,2013-12-01 01:37:00,
2013-11-30 20:42:00,34.2,27.1,30.47,ENE,57,0.0,0.0,75,0.00,,---,0.00,VWS V14.01,2013-12-01 01:42:00,
2013-11-30 20:43:00,34.3,27.2,30.47,ENE,57,0.0,0.0,75,0.00,,---,0.00,VWS V14.01,2013-12-01 01:43:00,
2013-11-30 20:48:00,34.2,27.1,30.47,ENE,57,0.0,0.0,75,0.00,,---,0.00,VWS V14.01,2013-12-01 01:48:00,
2013-11-30 20:53:00,34.3,27.2,30.47,ENE,60,0.0,0.0,75,0.00,,---,0.00,VWS V14.01,2013-12-01 01:53:00,
2013-11-30 20:58:00,34.3,27.2,30.46,ENE,60,0.0,0.0,75,0.00,,---,0.00,VWS V14.01,2013-12-01 01:58:00,
2013-11-30 21:03:00,34.3,27.5,30.47,ENE,60,0.0,0.0,76,0.00,,---,0.00,VWS V14.01,2013-12-01 02:03:00,
2013-11-30 21:08:00,34.2,27.4,30.46,ENE,60,0.0,0.0,76,0.00,,---,0.00,VWS V14.01,2013-12-01 02:08:00,
2013-11-30 21:13:00,34.2,27.4,30.46,ENE,60,0.0,0.0,76,0.00,,---,0.00,VWS V14.01,2013-12-01 02:13:00,
2013-11-30 21:18:00,34.2,27.4,30.46,ENE,60,0.0,0.0,76,0.00,,---,0.00,VWS V14.01,2013-12-01 02:18:00,
2013-11-30 21:23:00,34.1,27.3,30.46,ENE,60,0.0,0.0,76,0.00,,---,0.00,VWS V14.01,2013-12-01 02:23:00,
2013-11-30 21:28:00,34.1,27.3,30.45,ENE,60,0.0,0.0,76,0.00,,---,0.00,VWS V14.01,2013-12-01 02:28:00,
2013-11-30 21:33:00,34.1,27.3,30.45,ENE,60,0.0,0.0,76,0.00,,---,0.00,VWS V14.01,2013-12-01 02:33:00,
2013-11-30 21:38:00,34.0,27.2,30.45,ENE,60,0.0,0.0,76,0.00,,---,0.00,VWS V14.01,2013-12-01 02:38:00,
2013-11-30 21:43:00,34.0,27.6,30.45,ENE,60,0.0,0.0,77,0.00,,---,0.00,VWS V14.01,2013-12-01 02:43:00,
2013-11-30 21:48:00,34.0,27.6,30.44,NE,49,0.0,0.0,77,0.00,,---,0.00,VWS V14.01,2013-12-01 02:48:00,
2013-11-30 21:53:00,33.9,27.5,30.44,NE,53,0.0,0.0,77,0.00,,---,0.00,VWS V14.01,2013-12-01 02:53:00,
2013-11-30 21:58:00,33.9,27.8,30.44,East,101,0.0,0.0,78,0.00,,---,0.00,VWS V14.01,2013-12-01 02:58:00,
2013-11-30 22:03:00,33.8,28.0,30.44,WNW,295,0.0,0.0,79,0.00,,---,0.00,VWS V14.01,2013-12-01 03:03:00,
2013-11-30 22:08:00,33.8,28.0,30.44,WNW,295,0.0,0.0,79,0.00,,---,0.00,VWS V14.01,2013-12-01 03:08:00,
2013-11-30 22:13:00,33.7,27.6,30.44,WNW,295,0.0,0.0,78,0.00,,---,0.00,VWS V14.01,2013-12-01 03:13:00,
2013-11-30 22:19:00,33.7,27.9,30.43,WNW,295,0.0,0.0,79,0.00,,---,0.00,VWS V14.01,2013-12-01 03:19:00,
2013-11-30 22:24:00,33.7,27.6,30.43,WNW,295,0.0,0.0,78,0.00,,---,0.00,VWS V14.01,2013-12-01 03:24:00,
2013-11-30 22:29:00,33.8,27.7,30.43,WNW,299,0.0,0.0,78,0.00,,---,0.00,VWS V14.01,2013-12-01 03:29:00,
2013-11-30 22:34:00,33.8,28.0,30.42,WNW,299,0.0,0.0,79,0.00,,---,0.00,VWS V14.01,2013-12-01 03:34:00,
2013-11-30 22:39:00,33.8,28.3,30.42,WNW,299,0.0,0.0,80,0.00,,---,0.00,VWS V14.01,2013-12-01 03:39:00,
2013-11-30 22:44:00,33.8,28.3,30.42,North,359,0.0,1.0,80,0.00,,---,0.00,VWS V14.01,2013-12-01 03:44:00,
2013-11-30 22:49:00,33.8,28.3,30.42,North,7,0.0,1.0,80,0.00,,---,0.00,VWS V14.01,2013-12-01 03:49:00,
2013-11-30 22:54:00,33.7,28.2,30.42,North,349,0.0,1.0,80,0.00,,---,0.00,VWS V14.01,2013-12-01 03:54:00,
2013-11-30 22:59:00,33.9,28.4,30.42,NNE,22,0.0,1.0,80,0.00,,---,0.00,VWS V14.01,2013-12-01 03:59:00,
2013-11-30 23:04:00,33.8,28.3,30.41,NNE,22,0.0,0.0,80,0.00,,---,0.00,VWS V14.01,2013-12-01 04:04:00,
2013-11-30 23:09:00,33.8,28.3,30.41,NNE,25,0.0,0.0,80,0.00,,---,0.00,VWS V14.01,2013-12-01 04:09:00,
2013-11-30 23:14:00,33.8,28.3,30.41,NNE,25,0.0,0.0,80,0.00,,---,0.00,VWS V14.01,2013-12-01 04:14:00,
2013-11-30 23:19:00,33.8,28.6,30.40,NNE,25,0.0,0.0,81,0.00,,---,0.00,VWS V14.01,2013-12-01 04:19:00,
2013-11-30 23:24:00,33.6,28.4,30.40,NNE,25,0.0,0.0,81,0.00,,---,0.00,VWS V14.01,2013-12-01 04:24:00,
2013-11-30 23:29:00,33.5,28.3,30.40,NE,34,0.0,1.0,81,0.00,,---,0.00,VWS V14.01,2013-12-01 04:29:00,
2013-11-30 23:34:00,33.5,28.6,30.40,NE,34,0.0,0.0,82,0.00,,---,0.00,VWS V14.01,2013-12-01 04:34:00,
2013-11-30 23:39:00,33.3,28.4,30.40,NE,34,0.0,0.0,82,0.00,,---,0.00,VWS V14.01,2013-12-01 04:39:00,
2013-11-30 23:44:00,33.2,28.3,30.40,NNE,29,0.0,1.0,82,0.00,,---,0.00,VWS V14.01,2013-12-01 04:44:00,
2013-11-30 23:49:00,33.1,28.5,30.39,NNE,29,0.0,1.0,83,0.00,,---,0.00,VWS V14.01,2013-12-01 04:49:00,
2013-11-30 23:54:00,33.2,28.6,30.39,NNE,29,0.0,1.0,83,0.00,,---,0.00,VWS V14.01,2013-12-01 04:54:00,
2013-11-30 23:59:00,33.1,28.5,30.39,NNE,28,0.0,1.0,83,0.00,,---,0.00,VWS V14.01,2013-12-01 04:59:00,